(331685) = 2002 QB92

Discovered at Palomar on 2002-08-28 by NEAT.

Orbit

Orbit type: Main Belt

Note: WebGL enabled browser required.

epoch2023-09-13.0
epoch JD2460200.5
perihelion date2023-04-30.52564
perihelion JD2460065.02564
argument of perihelion (°)69.91242
ascending node (°)228.89012
inclination (°)2.73460
eccentricity0.2234676
perihelion distance (AU)1.7882814
Tisserand w.r.t. Jupiter3.6
ΔV w.r.t. Earth (km/sec)8.3
semimajor axis (AU)2.3029063
mean anomaly (°)38.20732
mean daily motion (°/day)0.28202620
aphelion distance (AU)2.818
period (years)3.49
P-vector [x]0.48098672
P-vector [y]-0.82115425
P-vector [z]-0.30717661
Q-vector [x]0.87599064
Q-vector [y]0.43575390
Q-vector [z]0.20678236
absolute magnitude18.55
phase slope0.15
uncertainty0
referenceMPEC 2023-Y06
observations used160
oppositions9
arc length (days)7750
first opposition used2002
last opposition used2023
residual rms (arc-secs)0.79
perturbers coarse indicatorM-v
perturbers precise indicator003Ek
first observation date used2002-08-28.0
last observation date used2023-11-16.0
computer nameMPCLINUX
JD of orbit computation2456639.738431
perihelion JD uncertainty (days)7.9756E-05
argument of perihelion uncertainty (°)8.0647E-05
ascending node uncertainty (°)7.6982E-05
inclination uncertainty (°)4.5961E-06
eccentricity uncertainty 3.4651E-08
perihelion distance uncertainty (AU)8.6445E-08
Minimum Orbit Intersection Distances (in AU)
for orbit epoch: 2460200.5, reference: E2023-Y06
Mercury1.34731
Venus1.06452
Earth0.77428
Mars0.38162
Jupiter2.39659
Saturn6.27436
Uranus15.7493
Neptune27.317

Observations

159 total observations over interval: 2002 08 28.41597 – 2023 11 16.304868
These data are available for download (format description).

